User: anonymous   Login
Location: Unspecified
(0.0000°N, 0.0000°E)
Time: 23:14:49
(UTC+02:00)
Language:

CZ-4B DEB - Orbit

View from above orbital plane
View from above orbital plane
View from above satellite
View from above satellite

Ground track
Ground track

The orbit data is extracted from the following two-line orbital elements,

1 33411U 08053D   17141.75162982 +.00043881 +00000-0 +51643-3 0  9998
2 33411 097.4093 189.2902 0004593 072.8086 287.3674 15.61286216472041
Epoch (UTC): 21 May 2017 18:02:20
Eccentricity: 0.0004593
inclination: 97.4093°
perigee height: 381 km
apogee height: 387 km
right ascension of ascending node: 189.2902°
argument of perigee: 72.8086°
revolutions per day: 15.61286216
mean anomaly at epoch: 287.3674°
orbit number at epoch: 47204

The dashed part of the orbit path shows where the satellite is in the earth's shadow,  

DLR